Location: ??????????
(42.1626°N, 44.1160°E)
Time: 14:41:24
(UTC+00:00)

CZ-4 R/B - Pass Details

Date: 03 March 2021
Orbit: 532 x 597 km, 97.7° (Epoch: 14 April)

Event Time Altitude Azimuth Distance (km) Brightness Sun altitude
Rises 16:25:00 0° 194° (SSW) 2,663 4.9 -17.3°
Reaches altitude 10° 16:27:22 10° 208° (SSW) 1,781 4.2 -17.7°
Maximum altitude 16:30:34 25° 265° (W) 1,106 3.7 -18.3°
Drops below altitude 10° 16:33:50 10° 322° (NW) 1,810 4.6 -18.9°
Sets 16:36:16 0° 335° (NNW) 2,717 5.3 -19.3°
